Theta_e
359 357 357 354 355 354 356 356 361 363 374 369 369 367 366 365 368 368 365 363 362 363 363 365 363 365 362 361 360 359 354 354 346 348 354 355 363 361 355 359 362 358 356
360 359 357 360 357 354 351 356 364 362 367 375 368 370 366 365 366 365 362 359 361 362 364 364 364 363 365 364 361 360 360 364 357 352 356 355 355 356 362 362 360 356 355
361 360 359 358 359 358 352 357 359 362 367 364 370 364 366 363 363 364 364 361 363 363 364 365 363 365 364 361 362 358 358 357 357 354 351 358 359 359 355 363 362 358 358
359 359 359 359 358 358 360 354 361 362 361 366 365 366 365 364 362 361 363 363 363 362 363 361 363 362 363 364 363 364 364 361 359 357 353 352 353 356 358 353 354 360 357
356 358 358 361 361 361 360 359 354 362 363 365 365 365 365 365 362 361 360 362 362 363 363 363 363 362 354 358 362 364 363 361 358 355 353 353 351 354 352 354 351 356 359
355 356 359 361 361 361 360 360 360 359 362 364 364 364 364 363 345 340 353 357 363 361 360 361 364 353 351 343 341 343 352 361 358 356 354 350 353 355 357 356 354 351 348
356 357 359 360 360 360 361 361 361 360 361 363 363 365 364 365 339 334 340 356 356 358 362 361 362 359 352 363 345 340 341 338 342 354 352 353 352 355 357 357 356 355 355
357 358 358 359 359 361 361 360 361 361 361 362 363 364 365 365 339 332 334 352 356 358 360 360 361 360 361 363 363 362 359 358 355 349 352 356 359 362 363 361 361 360 360
359 358 359 359 359 361 360 361 361 361 361 361 363 365 364 364 335 333 333 350 352 355 356 357 360 362 348 339 353 353 353 354 347 334 341 342 342 341 347 360 353 347 348
356 359 363 361 362 361 362 362 362 362 361 362 363 365 356 365 338 328 333 355 353 352 356 358 339 348 336 331 352 356 354 355 358 359 360 354 337 342 332 343 349 348 352
359 363 361 366 363 364 365 365 363 363 363 362 362 364 367 363 363 326 322 356 355 354 353 353 357 333 327 324 326 356 353 355 355 360 360 360 362 364 366 357 359 358 356
364 360 365 366 364 365 365 366 366 364 363 361 362 362 364 367 341 328 321 327 344 356 354 354 353 325 321 322 325 331 328 330 355 355 354 354 356 359 365 369 371 369 367
366 362 365 366 365 365 364 365 364 365 362 360 360 359 362 364 367 329 321 320 325 350 358 346 327 323 316 316 318 323 322 344 350 352 354 356 361 363 365 368 371 369 367
365 361 365 365 362 364 365 365 364 362 362 360 359 360 360 360 361 365 344 333 325 333 339 350 344 335 325 336 345 328 342 354 356 358 358 362 364 365 363 366 364 361 353
364 362 363 363 361 363 362 363 363 364 359 360 359 358 358 356 355 344 349 354 351 342 347 354 354 353 351 351 357 362 357 358 358 359 359 359 360 362 363 366 360 351 347
363 362 360 360 361 361 359 355 315 326 318 319 327 343 342 319 309 307 310 321 322 319 346 354 354 355 355 355 355 357 363 357 362 362 363 362 362 359 356 356 353 349 347
336 339 358 351 358 358 359 359 354 334 309 307 313 316 326 316 306 305 306 307 315 320 356 356 357 359 360 360 364 363 358 358 361 362 362 362 358 355 349 351 349 348 346
326 316 332 341 355 358 359 358 358 353 351 351 316 319 308 308 306 306 306 319 346 343 361 361 362 364 365 364 362 360 359 361 364 363 362 360 356 353 351 349 348 347 346
326 320 324 333 337 347 360 358 357 358 357 357 355 321 309 301 304 304 308 359 359 359 360 359 359 360 361 366 366 367 365 363 362 363 364 361 356 354 350 349 348 329 335
328 326 323 330 335 334 344 353 347 348 349 349 350 355 340 328 340 343 342 350 352 356 356 358 362 361 362 362 362 364 366 364 363 360 354 353 353 353 352 350 350 348 347
319 333 328 332 334 339 338 339 344 345 346 346 344 343 328 348 352 354 344 349 348 351 355 354 357 366 369 370 369 365 360 363 361 360 357 356 353 352 353 352 351 345 340
322 324 331 327 329 334 334 335 341 340 338 334 338 335 310 347 351 339 335 334 330 333 343 347 338 335 328 331 351 358 357 357 359 355 352 353 353 352 351 347 347 347 342
314 316 318 317 320 320 328 326 321 322 324 324 323 325 324 326 325 324 321 320 319 317 321 323 319 317 316 316 316 318 312 310 311 320 333 346 347 345 345 343 341 340 339
306 306 306 306 305 310 310 310 311 307 309 311 312 312 311 311 311 312 313 310 309 306 307 308 305 302 303 302 302 303 301 297 302 312 315 321 336 336 340 340 339 338 337
300 299 298 299 300 299 299 299 300 301 302 302 301 302 302 301 300 302 302 302 301 299 295 295 296 297 296 295 295 295 289 287 298 292 311 321 328 332 335 334 335 335 335
297 296 295 295 295 296 295 294 294 295 295 295 295 295 297 297 296 296 295 295 295 294 294 293 293 292 292 292 290 288 285 287 293 291 307 318 320 318 315 323 330 332 333
Wind_Speed
21 19 18 17 16 15 11 11 10 8 5 6 6 6 8 8 7 7 6 5 10 7 6 5 7 6 3 3 2 3 3 3 3 4 3 4 2 3 5 6 5 5 6
21 20 20 17 18 17 15 15 12 12 9 5 7 6 7 7 7 8 9 7 9 8 8 6 8 6 5 5 3 5 2 2 1 4 2 4 6 7 7 7 8 9 6
20 20 19 19 18 19 19 15 15 12 10 10 7 9 8 9 8 9 9 10 8 8 8 7 7 6 6 5 6 5 4 4 4 3 5 5 5 4 6 6 6 8 7
22 21 20 21 20 19 17 18 14 15 14 12 11 10 10 10 10 10 11 10 9 8 9 9 8 8 8 8 7 6 5 5 5 4 5 6 6 8 4 2 4 3 4
20 22 22 19 19 18 17 17 18 15 15 14 13 13 13 12 10 11 10 11 11 10 8 8 8 9 12 10 7 7 7 7 7 7 7 4 3 3 4 3 3 4 6
19 21 18 19 19 18 17 17 17 17 16 15 15 15 14 11 14 15 13 11 11 11 10 9 8 9 14 12 11 10 7 5 6 6 7 8 6 5 3 5 8 8 9
17 18 19 19 19 20 18 17 17 18 16 16 16 15 15 15 14 15 17 12 11 9 10 10 10 10 11 10 13 15 14 14 14 11 11 11 10 9 7 7 7 7 7
17 17 18 18 20 19 18 19 17 16 17 16 16 16 15 14 15 14 14 13 11 10 10 11 10 11 9 7 10 11 11 12 11 10 13 14 12 9 8 9 8 7 6
16 18 19 19 18 19 20 19 16 16 15 16 15 16 16 14 16 17 12 9 12 11 10 10 9 10 14 16 11 11 10 10 9 13 15 15 16 15 12 5 6 8 9
20 17 15 17 17 19 19 18 17 16 16 13 16 16 16 16 14 17 15 10 11 10 11 12 14 16 15 13 10 10 11 11 9 9 8 8 9 9 15 10 8 7 7
17 15 17 16 18 18 16 15 16 16 15 16 16 14 16 16 15 17 19 13 11 10 11 10 11 19 20 19 16 13 14 10 10 7 7 7 7 9 7 7 8 7 7
15 17 15 15 14 14 17 16 15 16 16 15 14 13 12 14 16 16 19 21 15 12 11 10 11 13 18 21 17 18 15 7 6 7 8 8 8 8 4 4 7 7 6
14 16 14 16 15 14 16 16 14 15 14 13 12 12 11 12 12 18 20 20 20 13 12 7 8 4 0 6 13 12 9 6 7 7 8 9 6 5 6 5 4 3 3
14 15 13 14 14 15 12 13 13 13 13 12 12 12 11 10 10 12 10 11 17 14 13 11 10 6 4 6 1 5 6 7 8 8 8 7 5 5 6 5 4 3 2
11 12 12 12 13 14 13 13 13 14 14 13 12 12 11 12 12 13 14 12 11 13 10 9 9 9 10 9 8 8 7 8 8 8 8 8 7 6 4 2 2 3 4
4 8 9 10 11 11 13 8 7 7 10 14 13 9 3 6 9 8 7 17 18 16 8 8 8 9 9 8 9 9 7 5 6 7 8 8 6 3 3 3 3 5 5
9 10 4 10 10 12 12 12 10 2 3 2 11 11 10 13 11 10 10 13 11 14 8 8 8 8 7 8 5 4 5 6 8 8 5 5 4 4 4 5 5 6 7
10 10 7 9 7 12 12 12 11 9 8 6 4 4 9 13 15 16 11 11 4 3 8 8 7 5 4 5 6 7 6 6 7 8 7 6 4 4 4 5 6 8 7
7 7 8 7 6 6 12 13 8 12 11 9 7 5 8 8 5 5 6 5 6 7 8 8 8 8 7 5 5 3 7 7 5 5 4 5 4 4 5 5 6 9 8
8 6 7 6 7 8 8 6 5 6 3 5 3 0 8 6 5 6 5 3 5 6 7 6 5 9 8 7 7 6 4 3 4 3 2 1 3 5 7 7 7 7 6
9 4 5 4 4 5 6 9 1 1 4 3 5 5 11 6 5 4 3 5 1 5 7 5 5 4 2 3 4 2 3 4 4 5 5 5 6 6 7 7 7 5 5
4 8 6 7 9 6 7 8 5 3 9 11 9 10 8 4 7 9 8 11 9 15 8 6 12 11 12 13 9 2 3 1 1 2 4 5 5 6 7 7 5 7 6
11 10 10 11 10 11 9 11 13 14 11 14 11 11 10 9 10 11 11 11 11 11 11 12 13 10 11 11 11 11 10 10 9 9 9 5 6 6 5 5 4 4 5
12 12 12 11 12 11 11 12 10 14 14 12 12 11 10 8 13 13 9 10 11 10 11 12 12 17 14 13 11 11 10 9 7 8 9 8 9 6 4 4 5 4 4
12 12 11 10 11 11 12 11 15 12 10 9 7 7 9 9 13 7 8 8 10 10 13 12 12 16 19 22 19 19 16 18 12 10 6 6 9 11 7 5 5 5 6
12 13 12 11 13 11 10 9 9 8 9 9 9 8 9 9 9 8 9 12 10 12 13 11 15 20 20 15 16 18 15 16 13 13 8 6 7 7 7 8 10 6 7
Wind_Direction
187 194 196 196 202 204 204 213 200 222 253 162 166 168 175 196 195 195 222 220 188 202 234 213 203 242 282 312 338 249 209 223 235 286 295 320 328 264 265 244 229 244 241
190 191 197 197 198 199 211 197 201 205 206 208 179 183 186 199 201 200 208 236 193 205 216 225 208 207 226 261 281 282 277 269 257 273 281 293 274 268 245 226 228 239 237
187 193 193 200 198 204 203 208 198 204 200 201 196 199 198 204 207 205 204 219 245 207 216 216 222 218 227 220 232 240 248 247 252 246 260 250 252 260 264 254 224 237 248
185 193 199 198 201 203 199 205 200 197 204 202 207 205 210 207 210 214 204 209 223 237 214 220 225 222 223 220 236 245 260 273 268 265 266 263 255 257 237 252 309 287 263
191 193 197 199 201 199 201 196 207 203 200 202 202 210 209 212 212 210 214 208 214 225 232 223 222 226 222 221 227 227 235 246 250 254 255 258 295 338 325 292 285 304 324
190 194 192 193 197 201 203 201 198 206 204 200 205 207 208 213 212 204 199 218 208 213 225 241 247 224 235 235 229 238 236 249 268 278 285 285 280 290 308 325 312 304 301
190 190 190 189 194 200 198 204 202 201 203 203 207 208 210 213 213 207 201 208 216 220 214 221 231 239 226 224 225 232 239 238 233 250 258 257 268 265 273 277 278 275 279
193 189 189 192 193 192 200 204 206 202 205 205 206 211 213 214 205 209 199 211 213 219 216 220 227 237 246 225 228 230 226 234 230 226 234 245 248 248 242 248 254 256 271
196 197 192 191 192 191 197 201 203 204 205 208 209 208 213 221 202 205 179 203 222 223 224 233 237 231 229 237 248 253 260 260 250 222 228 227 231 238 241 253 257 279 279
203 200 192 191 192 194 195 198 199 203 208 206 209 212 212 218 206 204 191 216 218 226 228 230 227 232 234 227 224 241 252 251 254 266 273 258 233 232 231 219 240 240 257
194 198 196 191 194 191 192 196 199 204 207 209 212 212 213 214 217 195 195 211 220 222 230 230 226 217 229 230 215 231 237 244 249 251 263 264 255 249 216 206 212 220 240
187 197 192 195 191 187 190 194 199 203 207 211 214 212 212 217 211 200 196 203 212 225 232 234 230 230 220 225 222 230 234 227 252 261 264 259 252 250 248 230 204 210 223
184 190 196 191 191 194 190 197 198 202 206 209 208 214 217 209 214 204 194 203 218 221 231 227 116 89 247 225 222 227 207 218 232 239 248 251 250 240 251 256 214 190 190
185 184 187 185 189 198 194 195 199 200 203 207 214 208 215 226 215 205 201 206 220 214 230 237 244 253 252 267 181 189 213 205 215 234 247 254 257 243 239 228 218 181 155
176 184 186 187 187 195 210 197 200 205 203 204 204 213 206 214 217 218 185 191 203 207 198 220 233 237 247 245 238 223 194 204 221 237 245 249 251 247 243 230 171 168 200
228 192 191 195 188 196 201 191 44 225 164 195 203 199 123 83 124 131 178 193 180 156 184 211 214 220 227 224 225 229 217 221 251 247 241 242 242 240 253 263 202 209 230
17 6 252 204 200 193 200 207 191 125 44 195 161 129 141 143 114 107 112 106 152 147 187 195 212 219 223 226 210 143 190 215 238 258 258 251 228 225 218 227 222 226 232
23 14 1 314 226 194 197 211 187 176 179 187 223 137 161 162 151 149 155 116 135 221 201 207 212 218 239 176 196 215 220 220 225 236 229 220 200 221 223 223 224 228 227
16 18 355 344 353 284 193 199 190 184 187 191 160 152 109 79 52 16 256 199 204 207 206 210 218 224 222 202 208 184 186 211 224 254 239 232 218 204 220 226 237 236 239
346 21 332 335 352 21 349 111 83 94 4 72 75 102 135 148 192 196 202 234 267 264 243 248 220 213 213 212 210 202 203 212 213 211 193 202 226 230 240 234 226 239 237
322 314 266 305 349 356 349 11 207 170 177 220 200 218 156 170 193 209 202 189 238 232 257 271 212 5 299 143 145 178 211 219 214 215 213 219 216 225 236 242 248 248 249
350 349 18 32 31 3 14 3 40 323 39 27 2 43 42 3 27 33 36 51 24 20 0 41 45 39 35 25 9 313 229 241 269 225 214 233 241 244 245 261 251 240 247
22 15 24 31 27 20 36 44 38 32 37 50 28 35 57 52 54 30 25 31 46 24 359 20 46 27 34 32 32 31 35 14 350 341 346 303 232 251 247 235 245 268 271
22 36 35 33 33 37 30 36 54 47 38 27 32 31 48 34 42 41 19 32 43 39 27 21 35 41 29 28 23 23 25 7 333 323 339 324 329 324 312 295 295 265 291
36 38 40 41 55 47 29 35 45 33 43 39 35 31 45 41 58 32 35 48 50 53 43 35 35 36 38 31 21 14 2 356 359 325 312 324 318 325 319 314 303 299 284
41 40 39 42 46 47 52 53 67 52 49 46 47 45 52 56 59 55 53 57 58 56 55 45 42 40 36 26 14 6 358 353 3 354 344 349 7 14 360 342 331 301 283